Location: D�derode
(51.8092°N, 10.1065°E)
Time: 21:09:04
(UTC+00:00)

Cosmos 1821 Rocket - Pass Details

Date: 01 December 2020
Orbit: 946 x 1004 km, 82.9° (Epoch: 24 January)

Event Time Altitude Azimuth Distance (km) Brightness Sun altitude
Rises 17:27:38 0° 350° (N) 3,671 7.0 -19.9°
Reaches altitude 10° 17:30:08 10° 351° (N) 2,729 6.3 -20.3°
Maximum altitude 17:36:25 83° 80° (E) 997 3.9 -21.3°
Drops below altitude 10° 17:42:45 10° 168° (SSE) 2,750 6.3 -22.2°
Sets 17:45:17 0° 170° (S) 3,701 7.0 -22.6°
